Tracking 21474 objects as of 26-Sep-2020
HD Live streaming from Space Station
objects crossing your sky now

THORAD DELTA 1 DEB

Track THORAD DELTA 1 DEB now!
10-day predictions


NORAD ID: 8555
Int'l Code: 1974-089CS
Perigee: 1,408.0 km
Apogee: 1,507.8 km
Inclination: 101.3 °
Period: 114.9 minutes
Semi major axis: 7828 km
RCS: 0.0537 m2 (small)
Launch date: November 15, 1974
Source: United States (US)
Launch site: AIR FORCE WESTERN TEST RANGE (AFWTR)

Note: This is SATELLITE DEBRIS
aabbcc
Your satellite tracking list
Your tracking list is empty




NASA's NSSDC Master Catalog

Two Line Element Set (TLE):
1  8555U 74089CS  20269.37832326 -.00000001  00000-0  25681-3 0  9991
2  8555 101.3030  77.6044 0063760 174.0454 246.8213 12.53288287 91358
Source of the keplerian elements: AFSPC